SCP
0 0 0 0 0 0 0 0 0 0 0 0 0 0 0 0 0 0 0 0 0 0 1 1 1 1 1 1 1 1 0 0 0 0 0 0 0 0 0 0 0 0 0
0 0 0 0 0 0 0 0 0 0 0 0 0 0 0 0 0 0 0 0 0 0 1 1 1 1 1 1 1 1 1 0 0 0 0 0 0 0 0 0 0 0 0
0 0 0 0 0 0 0 0 0 0 0 0 0 0 0 0 0 0 0 0 0 0 0 1 1 1 1 1 1 1 1 1 1 1 0 0 0 0 0 0 0 0 0
0 0 0 0 0 0 0 0 0 0 0 0 0 0 0 0 0 0 0 0 0 0 0 0 1 1 1 1 1 1 1 1 1 1 1 1 0 0 0 0 0 0 0
0 0 0 0 0 0 0 0 0 0 0 0 0 0 0 0 0 0 0 0 0 0 0 0 0 0 0 0 1 1 1 1 1 1 1 1 1 1 0 0 0 0 0
0 0 0 0 0 0 0 0 0 0 0 0 0 0 0 0 0 0 0 0 0 0 0 0 0 0 0 0 1 1 1 1 1 1 1 1 1 1 1 0 0 0 0
0 0 0 0 0 0 0 0 0 0 0 0 0 0 0 0 0 0 0 0 0 0 0 0 0 0 0 0 0 1 1 1 1 1 1 1 1 1 1 1 0 0 0
0 0 0 0 0 0 0 0 0 0 0 0 0 0 0 0 0 0 0 0 0 0 0 0 0 0 0 0 0 0 0 1 1 1 1 1 1 1 1 1 1 0 0
0 0 0 0 0 0 0 0 0 0 0 0 0 0 0 0 0 0 0 0 0 0 0 0 0 0 0 0 0 0 0 0 1 1 1 1 1 1 1 1 1 0 0
0 0 0 0 0 0 0 0 0 0 0 0 0 0 0 0 0 0 0 0 0 0 0 0 0 0 0 0 0 0 0 0 0 0 1 1 1 1 1 1 1 1 0
0 0 0 0 0 0 0 0 0 0 0 0 0 0 0 0 0 0 0 0 0 0 0 0 0 0 0 0 0 0 0 0 0 0 0 1 1 1 1 1 1 1 0
0 0 0 0 0 0 0 0 0 0 0 0 0 0 0 0 0 0 0 0 0 0 0 0 0 0 0 0 0 0 0 0 0 0 0 0 0 1 1 1 1 1 0
0 0 0 0 0 0 0 0 0 0 0 0 0 0 0 0 0 0 0 0 0 0 0 0 0 0 0 0 0 0 0 0 0 0 0 0 0 0 1 1 1 1 0
0 0 0 0 0 0 0 0 0 0 0 0 0 0 0 0 0 0 0 0 0 0 0 0 0 0 0 0 0 0 0 0 0 0 0 0 0 0 0 0 0 0 0
0 0 0 0 0 0 0 0 0 0 0 0 0 0 0 0 0 0 0 0 0 0 0 0 0 0 0 0 0 0 0 0 0 0 0 0 0 0 0 0 0 0 0
0 0 0 0 0 0 0 0 0 0 0 0 0 0 0 0 0 0 0 0 0 0 0 0 0 0 0 0 0 0 0 0 0 0 0 0 0 0 0 0 0 0 0
0 0 0 0 0 0 0 0 0 0 0 0 0 0 0 0 0 0 0 0 0 0 0 0 0 0 0 0 0 0 0 0 0 0 0 0 0 0 0 0 0 0 0
0 0 0 0 0 0 0 0 0 0 0 0 0 0 0 0 0 0 0 0 0 0 0 0 0 0 0 0 0 0 0 0 0 0 0 0 0 0 0 0 0 0 0
0 0 0 0 0 0 0 0 0 0 0 0 0 0 0 0 0 0 0 0 0 0 0 0 0 0 0 0 0 0 0 0 0 0 0 0 0 0 0 0 0 0 0
0 0 0 0 0 0 0 0 0 0 0 0 0 0 0 0 0 0 0 0 0 0 0 0 0 0 0 0 0 0 0 0 0 0 0 0 0 0 0 0 0 0 0
0 0 0 0 0 0 0 0 0 0 0 0 0 0 0 0 0 0 0 0 0 0 0 0 0 0 0 0 0 0 0 0 0 0 0 0 0 0 0 0 0 0 0
0 0 0 0 0 0 0 0 0 0 0 0 0 0 0 0 0 0 0 0 0 0 0 0 0 0 0 0 0 0 0 0 0 0 0 0 0 0 0 0 0 0 0
0 0 0 0 0 0 0 0 0 0 0 0 0 0 0 0 0 0 0 0 0 0 0 0 0 0 0 0 0 0 0 0 0 0 0 0 0 0 0 0 0 0 0
0 0 0 0 0 0 0 0 0 0 0 0 0 0 0 0 0 0 0 0 0 0 0 0 0 0 0 0 0 0 0 0 0 0 0 0 0 0 0 0 0 0 0
0 0 0 0 0 0 0 0 0 0 0 0 0 0 0 0 0 0 0 0 0 0 0 0 0 0 0 0 0 0 0 0 0 0 0 0 0 0 0 0 0 0 0
0 0 0 0 0 0 0 0 0 0 0 0 0 0 0 0 0 0 0 0 0 0 0 0 0 0 0 0 0 0 0 0 0 0 0 0 0 0 0 0 0 0 0
Wind_Speed
2 2 1 1 2 2 2 2 2 3 3 3 3 3 4 4 4 3 2 10 13 14 16 17 18 19 19 19 19 18 18 18 16 15 14 15 15 15 15 14 14 13 12
3 2 2 1 1 2 2 2 2 2 1 1 2 3 3 4 4 4 4 7 14 15 16 17 18 19 20 20 20 19 19 18 17 16 16 15 15 15 15 15 14 13 13
3 3 2 1 1 1 1 1 1 0 1 1 2 3 3 4 4 5 5 5 7 14 16 17 18 19 20 21 21 21 20 18 18 18 17 16 16 15 15 15 15 14 13
3 3 1 1 0 1 1 1 1 0 1 1 2 3 2 3 4 4 4 5 5 7 12 18 19 20 21 21 22 22 21 20 19 19 19 18 17 17 16 16 16 15 14
3 3 2 1 1 1 1 0 1 1 1 2 3 3 3 3 3 4 5 6 7 7 6 11 18 19 21 22 22 22 22 22 21 21 21 20 20 19 18 17 17 16 16
4 3 2 2 2 2 2 1 0 0 1 2 3 3 3 4 3 4 5 5 5 7 7 8 8 11 19 20 20 21 22 22 22 22 22 22 22 20 19 19 18 17 17
3 3 2 2 2 2 1 1 1 1 1 1 1 3 4 3 4 4 3 3 4 6 6 7 6 6 7 16 19 20 21 23 23 23 23 23 22 21 21 20 20 19 18
3 4 3 2 2 2 2 2 2 1 2 1 1 1 4 5 4 3 2 2 3 3 4 6 6 7 6 5 9 18 20 22 23 23 23 23 23 22 22 22 21 20 20
2 2 3 3 2 2 1 1 2 2 1 2 1 2 0 2 4 4 3 2 2 2 3 3 5 6 7 6 6 11 19 21 22 23 23 23 23 22 22 23 23 22 21
0 1 2 3 3 2 2 1 2 1 1 1 2 0 2 3 2 4 4 3 3 2 3 3 3 4 5 4 6 10 14 17 19 21 22 23 24 24 24 24 24 24 23
2 1 2 2 2 1 1 1 1 1 1 1 1 1 1 1 2 2 4 4 4 3 3 3 2 3 3 4 4 7 11 12 14 16 18 20 22 24 25 26 27 26 25
2 2 2 2 2 1 1 1 1 1 1 1 2 2 2 1 2 1 3 3 4 4 3 3 2 3 3 3 5 7 9 10 11 12 14 16 19 22 24 26 27 27 27
1 1 1 1 1 1 1 1 1 1 2 2 2 2 2 3 3 3 2 3 3 3 3 3 2 3 3 2 4 7 7 8 9 11 12 13 16 19 22 24 25 26 27
1 1 1 0 1 1 1 1 1 2 2 3 4 3 3 3 3 3 3 2 3 3 3 4 3 3 3 3 5 7 5 8 8 9 10 11 13 15 18 20 22 23 24
2 2 1 1 2 2 2 2 2 3 3 3 4 4 3 3 3 3 3 3 3 3 4 4 3 3 3 3 5 4 4 6 8 8 9 10 11 13 15 17 19 20 21
2 1 2 2 2 2 3 2 2 3 3 3 3 3 3 3 3 3 3 3 3 4 4 4 4 4 4 4 4 4 5 8 8 8 9 10 11 12 13 15 16 18 19
2 2 3 3 3 3 3 3 3 4 4 4 4 3 4 4 3 3 3 3 3 3 4 4 3 3 3 4 4 3 4 4 4 9 10 11 11 12 13 14 15 16 17
3 3 3 3 4 4 4 4 5 4 4 5 5 4 5 4 4 4 3 4 4 4 4 5 4 3 4 5 4 4 4 4 4 8 10 11 11 12 12 13 14 15 16
3 3 3 4 4 4 4 5 5 5 5 5 5 5 5 4 5 4 4 4 4 4 4 4 4 3 3 3 3 4 4 3 4 6 8 10 11 11 12 12 13 14 16
4 4 4 5 5 5 5 5 4 5 5 5 5 5 6 6 6 6 5 5 5 4 4 4 4 4 4 4 2 3 3 3 3 3 5 5 8 10 11 12 13 14 15
5 4 4 5 5 4 5 5 4 5 5 5 5 5 6 8 10 8 6 5 5 4 4 4 4 3 3 3 3 2 3 3 3 3 2 3 3 4 5 8 11 13 14
4 4 5 5 5 5 6 8 7 5 5 6 6 6 6 8 10 11 12 10 9 7 6 5 4 5 6 5 4 3 2 2 3 2 2 3 2 4 4 4 7 9 11
4 5 5 5 6 8 11 11 11 6 6 6 6 6 6 7 8 6 8 10 10 12 12 8 7 8 6 6 5 4 4 4 5 3 2 3 2 3 3 3 7 8 10
5 5 5 6 6 8 11 12 12 7 6 7 7 7 7 8 8 7 7 7 7 7 8 7 8 9 8 7 6 6 6 4 4 3 3 3 2 2 2 2 5 7 9
5 5 5 6 7 8 11 12 10 4 5 7 7 7 7 7 11 11 7 7 7 7 10 12 12 12 13 12 8 4 3 3 4 4 3 3 3 2 2 2 3 5 7
6 5 6 6 7 8 11 12 10 4 5 6 6 6 9 9 10 9 6 6 8 8 6 6 7 8 8 9 11 8 6 5 4 4 4 4 3 2 2 2 2 2 3
Wind_Direction
145 145 159 165 176 177 188 206 214 217 219 228 223 216 214 220 218 207 217 204 201 201 198 201 203 202 200 199 197 195 194 193 191 188 187 186 184 183 182 180 178 175 173
137 128 122 132 182 194 193 204 215 214 224 225 235 225 223 224 224 211 212 210 208 206 207 206 208 209 207 205 203 201 200 198 194 192 191 190 189 188 188 187 185 183 180
130 121 128 138 180 189 183 187 206 177 234 241 249 246 235 232 230 219 212 207 212 216 216 216 217 215 213 210 208 207 204 203 199 196 196 194 193 192 192 192 190 188 186
132 125 133 142 174 130 122 138 130 143 275 282 278 272 259 244 241 235 221 213 211 218 220 221 220 219 218 215 213 212 208 206 203 201 200 199 197 196 196 196 195 193 191
140 134 132 118 91 79 56 65 101 141 263 286 279 272 270 259 251 249 237 227 220 219 218 225 224 222 222 222 220 217 213 210 207 205 204 204 202 200 199 200 199 197 196
138 131 118 90 79 68 35 22 8 307 241 266 289 295 279 268 261 252 245 238 227 224 220 223 223 228 226 226 225 222 219 215 212 210 209 208 206 204 202 202 202 201 200
134 123 117 96 85 81 48 11 12 348 320 344 3 326 311 286 270 258 253 250 245 239 226 220 217 219 228 229 228 226 225 221 217 215 212 211 209 207 205 204 204 204 203
136 139 137 129 115 93 55 38 45 31 337 23 79 7 339 334 328 300 290 264 264 258 239 232 222 217 221 220 224 226 227 227 222 219 216 213 211 209 207 207 206 206 206
133 145 154 142 129 115 96 59 79 87 341 332 81 137 134 287 313 319 323 316 308 280 261 245 228 223 220 218 220 226 229 228 227 225 222 218 213 210 209 209 209 209 208
340 169 152 144 139 130 125 117 109 117 125 312 324 224 195 200 240 310 317 320 320 302 292 281 261 236 224 218 221 221 229 229 229 229 227 224 218 213 211 211 212 212 211
8 56 120 129 132 133 137 119 77 86 156 196 241 278 297 272 201 207 292 317 324 305 292 278 268 256 235 222 220 224 228 230 231 233 232 228 224 219 216 213 215 215 215
18 42 88 109 130 142 166 202 222 258 248 238 232 222 217 237 249 226 257 291 298 294 296 287 280 272 257 236 232 226 225 228 231 236 238 236 229 223 220 218 219 219 218
12 4 75 107 145 203 216 208 222 260 256 251 247 240 229 224 216 206 221 263 282 293 303 301 283 284 274 255 248 237 233 227 229 235 239 240 237 228 223 222 222 221 220
205 200 140 159 242 254 252 233 238 255 251 254 261 254 248 247 225 212 210 223 285 298 297 285 296 278 276 267 256 243 241 234 233 234 237 240 239 232 225 221 222 222 221
198 179 196 243 263 262 259 250 246 261 262 256 259 260 252 251 244 234 218 199 205 261 280 276 281 284 283 269 264 248 242 244 241 240 241 243 240 235 228 222 220 220 220
211 220 252 260 269 272 270 257 255 260 261 263 254 261 262 256 257 249 235 224 204 210 249 261 259 274 291 290 270 257 253 251 243 240 241 243 242 238 232 225 221 220 218
213 222 235 244 256 261 262 251 252 258 257 264 268 262 263 261 259 260 251 240 228 205 241 268 259 271 276 277 282 269 257 245 244 242 242 242 242 239 233 228 224 221 219
216 223 229 239 251 253 250 244 252 256 250 256 262 261 265 268 261 258 253 250 245 227 223 259 272 272 266 264 264 264 257 245 241 247 245 244 242 240 235 230 227 223 219
225 232 231 238 247 251 251 248 243 248 246 247 248 247 254 256 259 257 253 252 251 253 226 236 260 261 267 268 274 273 263 256 251 248 247 248 245 241 238 233 229 225 220
225 235 238 240 244 248 249 248 244 244 247 250 249 246 246 242 245 250 254 249 247 251 245 241 254 262 264 270 260 266 278 259 256 256 249 246 246 244 238 233 230 225 220
230 232 239 248 251 250 244 234 234 240 242 253 258 254 253 253 250 246 249 243 240 239 241 240 250 259 261 264 254 246 256 269 265 240 252 253 246 244 236 232 228 224 220
238 238 241 247 254 253 248 239 233 237 241 245 255 260 264 266 265 262 260 255 236 229 229 230 238 240 249 243 244 243 243 255 275 253 220 257 223 241 238 229 226 222 220
232 241 247 247 251 256 259 259 252 235 234 240 245 252 264 267 267 263 268 272 263 250 233 222 229 237 240 234 230 243 234 226 235 237 206 255 234 239 238 235 227 223 223
230 239 246 248 251 259 259 258 256 241 236 242 242 242 248 262 265 256 258 264 260 258 248 236 229 237 239 234 223 228 232 240 252 245 194 236 239 238 240 239 229 221 221
234 238 244 247 251 262 262 257 252 232 240 250 249 247 245 253 262 262 253 255 264 266 261 248 238 240 244 243 231 223 226 223 248 246 205 211 224 223 235 243 232 219 216
234 242 250 248 247 255 261 258 246 217 238 252 257 255 252 254 258 259 241 240 255 262 265 272 261 256 251 253 243 221 212 213 221 241 213 195 204 185 241 248 226 215 213